Back to catalog

FENGYUN 1C DEB

AlivePO
NORAD 32322·DEBRIS·🇨🇳 China

Launched May 10, 1999 from Taiyuan Satellite Launch Center

Loading…

Next Passes (next 24 hours)

TLE

FreshSource: Space-Track

Epoch: Sep 13, 2026, 09:11 UTC

1 32322U 99025CXP 26256.38299281  .00000453  00000-0  58699-3 0  9992
2 32322  98.3456  94.1057 0418353 124.0351 240.1247 13.34552162640423

Track FENGYUN 1C DEB in real time with AllMySat

Download on the App Store